Temperature
22 22 21 22 23 23 23 22 22 22 23 22 22 21 21 21 21 21 21 21 21 21 21 21 20 20 20 19 19 18 18 18 17 17 17 17 17 16 16 16 16 16 16 16
22 21 22 23 23 23 23 22 22 22 23 23 22 22 22 22 22 22 22 22 22 22 21 21 20 20 20 20 19 19 18 18 18 17 17 17 17 16 16 16 16 16 16 16
22 22 23 23 23 23 23 22 22 22 23 23 22 21 22 22 22 22 22 22 22 22 21 21 20 20 20 20 19 19 19 18 18 17 17 17 17 17 16 16 16 16 16 16
22 23 23 23 22 23 22 23 23 23 22 22 22 21 22 22 22 22 22 22 22 22 22 21 21 20 20 20 19 19 19 18 18 18 17 17 17 17 16 16 16 16 16 16
22 23 23 22 22 23 22 23 23 23 22 22 23 22 22 23 22 22 23 23 22 22 22 21 21 20 20 20 19 19 19 18 18 18 18 17 17 17 17 16 16 16 16 16
23 23 23 23 23 23 23 23 23 23 22 21 23 22 22 23 23 23 23 23 23 23 22 22 21 21 20 20 19 19 19 18 18 18 18 17 17 17 17 16 16 16 16 16
22 23 23 23 23 23 23 22 21 20 20 21 23 23 23 24 25 25 24 24 23 23 22 22 21 21 20 20 19 19 19 19 18 18 18 18 17 17 17 17 17 16 16 16
22 22 23 24 23 22 23 22 21 20 21 22 24 23 24 26 26 25 25 24 23 23 23 22 21 21 20 20 19 19 19 19 18 18 18 18 17 17 17 17 17 17 16 16
23 22 24 24 24 23 23 23 23 23 23 22 23 24 25 26 25 25 25 24 24 23 23 22 22 21 20 20 19 19 19 19 18 18 18 18 18 17 17 17 17 17 16 16
24 23 24 24 24 24 24 23 23 22 21 21 23 23 23 24 25 25 25 24 24 23 23 22 22 21 20 20 19 19 19 19 19 18 18 18 18 18 17 17 17 17 17 16
24 23 23 24 23 24 24 24 24 23 23 22 21 22 25 25 25 25 25 24 24 23 23 22 22 21 20 20 19 19 19 19 19 18 18 18 18 18 17 17 17 17 17 16
25 24 23 24 25 25 25 25 23 22 22 23 22 22 26 25 26 26 25 24 24 23 23 22 21 21 20 20 19 19 19 19 19 19 18 18 18 18 17 17 17 17 16 16
24 23 22 22 23 24 24 25 24 24 23 22 22 22 26 25 25 25 25 24 24 23 22 22 21 21 20 20 19 19 19 19 19 18 18 18 18 18 17 17 17 16 16 16
23 23 23 22 22 23 24 24 24 24 22 22 22 23 24 25 25 25 24 24 23 23 22 22 21 20 20 20 19 19 19 19 19 18 18 18 18 17 17 17 16 16 16 16
25 23 24 24 24 24 24 24 24 24 23 22 23 23 24 24 24 24 24 23 23 22 22 22 21 20 20 20 19 19 19 19 19 18 18 18 18 17 17 17 16 16 16 16
25 24 24 24 24 24 24 24 24 24 24 23 23 23 24 25 25 24 24 23 23 22 22 21 21 20 20 20 19 19 19 19 18 18 18 18 17 17 17 16 16 16 16 15
25 24 23 23 24 24 23 24 25 25 25 24 23 23 24 24 24 24 23 23 22 22 22 21 21 21 20 20 19 19 19 18 18 18 18 17 17 17 17 16 16 16 15 15
25 24 24 23 23 22 24 25 25 25 25 25 25 24 24 24 24 24 23 23 22 22 22 21 21 21 20 20 20 19 19 18 18 18 17 17 17 17 16 16 16 15 15 15
25 24 23 23 22 23 24 25 25 24 24 25 25 24 24 24 23 23 23 22 22 21 21 21 21 21 21 20 20 19 19 18 18 17 17 17 17 16 16 16 15 15 15 15
25 25 23 23 22 22 23 25 25 25 23 25 25 24 24 24 22 22 22 21 21 21 21 20 21 20 20 20 20 19 18 18 17 17 17 17 16 16 16 16 15 15 15 15
24 23 23 23 22 23 24 25 24 23 23 24 24 24 24 23 22 22 21 21 20 20 20 20 20 20 20 20 19 19 18 18 17 17 17 16 16 16 15 15 15 15 14 14
24 23 23 23 22 22 24 24 24 24 24 24 24 23 23 22 22 21 21 20 20 19 19 19 19 19 19 19 19 18 18 18 17 17 16 16 15 15 15 15 14 14 14 13
24 24 23 23 23 24 24 24 23 24 23 23 23 22 22 21 21 20 20 20 19 19 19 19 18 18 18 18 18 18 17 17 17 16 16 15 15 15 14 14 14 13 13 13
24 25 24 23 23 24 23 23 23 23 23 22 22 22 21 21 20 20 19 19 19 18 18 18 18 18 17 17 17 17 17 16 16 16 15 15 14 14 14 13 13 13 13 12
23 23 23 23 23 23 22 22 22 22 22 21 21 21 21 20 20 19 19 19 18 18 18 18 17 17 17 17 17 17 16 16 16 15 15 14 14 14 13 13 13 13 12 12
23 23 22 22 22 22 22 21 21 21 21 21 20 20 20 19 19 19 18 18 18 17 17 17 17 17 16 16 16 16 16 15 15 14 14 14 13 13 13 12 12 12 12 11
Wind_Speed
4 3 4 4 5 3 4 5 5 5 7 5 6 8 9 9 8 9 10 10 10 9 8 8 7 7 6 7 8 8 7 6 4 2 3 3 2 2 3 4 7 7 8 8
3 3 3 2 2 2 5 6 5 6 7 5 5 7 8 10 10 10 10 10 10 10 9 9 8 7 7 7 7 7 7 6 6 3 2 3 3 3 3 4 5 7 8 9
1 1 2 3 3 3 5 6 6 6 5 5 5 5 8 10 10 10 10 9 10 11 11 11 10 8 7 7 7 7 7 7 7 5 3 3 3 2 3 3 2 3 6 6
1 2 2 2 2 2 3 4 5 6 5 4 6 4 7 11 11 11 10 9 9 10 11 10 10 9 9 8 7 7 7 7 7 6 4 4 3 3 3 3 2 3 4 4
2 3 2 2 2 1 2 4 4 6 4 4 6 3 5 11 11 12 12 11 10 10 10 11 10 10 9 8 7 6 7 7 7 6 4 1 2 3 3 3 3 3 3 3
2 1 1 2 2 3 4 4 4 4 3 5 6 4 4 8 12 13 13 13 11 10 10 10 10 9 8 8 7 6 7 6 6 6 6 4 3 3 4 3 2 2 3 2
3 3 4 3 3 5 5 3 2 3 4 4 7 5 4 7 10 12 12 13 12 11 10 10 10 10 9 9 8 7 7 7 7 6 6 6 5 5 4 3 3 2 2 2
4 4 6 5 4 3 5 5 3 2 2 3 5 3 3 6 6 8 10 11 11 11 10 10 11 10 10 10 9 9 8 8 8 7 6 6 6 4 3 3 3 3 2 3
2 4 7 6 5 4 4 5 5 4 2 2 4 4 5 6 6 7 9 10 11 11 10 11 11 11 10 10 9 9 9 8 8 7 6 5 5 4 4 4 3 3 3 3
1 3 6 6 5 6 6 5 4 2 1 1 3 4 4 7 8 8 8 8 9 10 10 10 10 10 10 9 9 9 8 8 7 7 6 5 4 5 4 3 3 3 3 4
2 2 5 6 5 5 6 5 3 2 2 1 0 1 3 6 6 7 8 8 8 9 9 9 9 9 9 9 8 8 8 7 7 7 6 6 5 4 4 3 3 3 2 4
2 2 3 5 3 3 5 3 1 1 3 1 0 1 4 5 4 5 6 7 8 8 8 9 9 9 8 9 9 8 8 7 6 6 5 5 6 5 5 4 4 4 4 4
2 2 1 2 3 4 5 3 3 3 3 1 0 1 4 5 5 6 6 5 6 8 8 8 9 9 8 8 8 7 7 7 7 6 6 5 5 6 5 5 4 4 4 4
2 4 2 1 1 2 3 3 3 3 1 1 0 1 2 3 4 5 5 5 6 7 7 8 8 8 8 8 7 7 7 7 8 7 6 5 5 5 4 4 3 3 2 2
4 4 3 3 2 2 4 4 4 4 3 2 1 1 1 1 4 5 5 5 6 7 7 8 8 7 8 7 7 6 6 7 8 7 6 6 5 5 5 4 4 3 2 2
5 5 5 5 4 4 4 4 5 5 3 3 2 2 0 2 3 4 5 6 5 5 6 7 8 8 8 8 8 7 7 7 7 7 6 5 5 5 5 4 4 3 2 2
6 6 5 5 5 5 4 3 3 3 3 4 3 2 2 3 2 3 4 5 5 5 5 6 7 7 8 8 8 7 7 7 7 7 6 6 6 5 5 5 5 4 4 3
6 6 4 5 5 4 1 1 1 2 2 2 2 3 2 2 2 4 4 4 4 4 5 6 6 6 7 7 8 7 7 7 7 6 6 6 6 6 5 5 5 5 4 3
6 5 4 4 5 4 3 2 2 1 1 1 2 4 3 4 4 4 5 5 5 4 3 2 2 3 5 6 7 7 7 6 6 6 6 6 6 6 6 5 5 4 4 3
7 6 5 4 5 3 1 2 2 2 2 1 1 3 4 3 2 3 5 6 6 5 4 3 2 1 2 4 6 6 6 6 6 5 5 5 5 5 6 6 4 3 3 3
9 7 7 7 6 2 1 2 1 2 0 2 3 3 3 2 3 5 6 6 6 5 4 3 2 3 3 3 4 5 4 5 5 5 4 4 4 5 5 4 4 4 3 3
6 5 6 6 6 2 2 2 1 1 2 2 3 3 4 5 6 6 6 5 5 4 4 4 3 3 2 2 4 4 3 3 5 5 5 4 4 4 4 4 4 3 4 3
6 4 2 2 1 3 3 1 0 2 1 2 3 3 4 4 4 4 4 4 4 4 4 4 4 3 3 3 4 4 3 4 5 5 5 4 4 4 4 4 4 3 3 3
4 4 4 4 3 2 1 1 1 1 1 2 2 2 2 2 3 3 4 4 4 4 4 4 4 3 3 3 4 3 3 4 5 5 4 4 4 4 4 3 3 3 2 2
2 3 5 6 3 1 2 0 1 1 1 1 1 1 1 1 2 3 3 3 4 4 4 4 3 4 3 3 4 3 2 3 4 4 4 3 3 4 4 3 2 2 1 2
6 5 5 3 2 2 1 0 1 0 1 1 1 1 1 1 3 3 3 3 4 4 4 3 4 4 4 3 3 3 2 2 3 3 3 3 2 3 4 4 3 4 3 3
Wind_Direction
205 212 208 205 231 236 189 166 159 151 153 168 168 166 169 177 179 179 179 183 183 178 166 152 150 146 153 147 137 135 142 141 128 103 103 111 103 88 71 70 51 40 38 26
180 208 226 245 242 192 162 160 155 145 156 172 179 179 175 179 188 192 192 190 184 174 165 156 161 161 169 152 145 146 147 134 120 114 124 116 104 99 88 67 54 45 44 25
175 113 139 166 167 164 170 174 173 162 157 177 180 192 185 185 190 197 204 201 185 176 169 167 171 168 165 156 153 150 145 138 138 141 104 96 90 100 114 110 87 57 58 39
130 124 129 127 145 168 172 164 171 177 182 196 201 192 195 186 188 195 200 206 189 179 170 168 170 167 167 165 160 157 155 149 143 141 148 164 159 141 128 126 130 111 77 57
147 154 156 138 151 196 163 160 180 201 220 223 214 213 199 182 187 191 194 198 192 185 173 170 168 167 168 160 159 159 152 142 138 138 139 165 131 137 120 113 125 123 107 88
163 182 157 137 177 194 177 188 205 226 240 240 222 216 201 191 191 190 190 191 187 184 176 170 164 161 158 148 152 153 143 135 140 156 161 166 146 140 134 139 140 151 144 119
171 184 175 186 193 192 210 209 211 207 212 226 214 208 189 191 186 187 185 183 181 176 175 169 163 163 155 154 161 158 150 152 162 179 175 168 171 176 169 165 163 175 148 131
180 177 184 192 219 211 216 218 230 239 209 197 202 188 144 158 163 174 173 172 174 175 173 171 167 163 159 163 169 169 167 168 173 187 183 174 173 177 164 172 173 166 141 137
179 168 175 187 216 237 249 233 245 276 259 193 170 144 133 140 151 158 162 167 173 173 170 167 163 161 163 168 174 174 171 171 178 188 182 179 168 164 167 184 163 146 146 140
196 154 175 184 223 219 248 278 278 268 301 221 170 159 150 148 153 160 162 166 170 169 168 163 160 162 165 168 170 169 173 174 177 179 180 167 167 165 161 163 149 143 141 135
219 197 176 181 214 227 214 229 251 281 264 247 124 94 114 137 150 154 154 159 167 163 161 159 156 158 159 157 161 168 173 171 172 175 173 164 168 169 157 153 153 158 160 154
265 257 197 198 203 246 266 257 236 280 293 288 101 77 112 118 119 134 138 151 155 153 153 152 150 153 156 159 164 171 173 168 168 167 163 165 165 166 164 167 177 181 178 170
337 286 236 190 190 211 234 246 238 246 285 309 104 148 118 104 104 108 114 126 139 141 144 146 147 154 156 158 164 173 170 163 160 160 168 172 167 166 170 173 178 180 176 166
284 268 254 252 312 291 249 241 247 259 279 302 234 157 84 88 103 110 117 130 134 139 145 149 149 153 155 159 166 173 169 160 159 161 171 170 170 166 163 161 158 160 161 157
236 266 284 286 262 272 286 262 243 241 243 243 289 331 2 90 112 117 128 135 138 144 150 150 151 156 158 163 170 174 171 163 162 165 174 176 171 160 154 151 151 154 169 175
229 252 267 276 270 263 266 264 240 239 233 211 220 249 177 107 97 115 132 141 142 146 153 154 158 164 170 173 177 177 173 166 162 168 174 170 164 154 154 155 156 160 171 178
224 238 256 269 262 263 261 270 243 235 240 214 201 174 142 126 131 128 124 133 145 149 150 159 167 171 177 179 174 173 171 165 165 172 169 164 162 161 163 162 160 168 170 175
245 249 249 260 262 260 273 214 210 242 256 220 171 156 160 145 117 103 112 127 130 140 154 165 174 176 176 169 164 165 163 165 168 169 169 168 166 168 164 164 173 177 168 172
245 252 258 262 261 260 225 225 200 213 273 286 162 148 149 123 109 98 91 96 95 96 99 108 148 165 167 163 162 160 163 164 165 169 171 171 171 169 167 175 180 174 168 174
225 234 242 253 265 265 126 86 21 290 244 356 83 123 129 138 139 117 96 91 93 84 79 66 52 82 115 139 148 153 160 161 163 162 163 161 162 164 169 176 173 164 167 180
211 219 231 242 250 247 104 111 201 255 103 66 75 84 115 89 85 108 104 93 95 98 100 102 79 77 75 87 123 144 153 156 148 140 146 152 153 157 162 162 160 158 162 171
245 232 233 239 247 220 129 156 215 14 65 66 72 71 83 90 90 98 104 103 103 102 104 107 95 81 79 96 114 119 123 122 124 131 138 142 144 155 153 145 152 158 159 171
236 244 264 268 257 122 136 136 30 352 24 41 58 71 92 107 114 111 115 116 114 111 106 100 98 91 82 81 99 113 116 116 121 124 128 134 137 134 135 143 150 154 157 169
254 264 252 250 231 185 166 128 44 20 39 59 50 63 91 125 133 129 128 127 123 115 108 107 112 105 89 85 87 94 101 113 120 126 135 140 140 134 131 133 144 149 165 176
270 269 264 263 249 208 203 166 340 90 111 125 119 130 146 162 151 144 142 138 128 116 114 117 118 109 102 96 96 94 94 116 126 129 127 128 126 130 122 106 98 132 135 163
254 258 250 256 253 277 261 63 354 347 160 127 115 122 157 173 148 142 135 127 119 115 109 103 103 106 104 97 94 91 88 108 127 129 131 128 125 125 129 125 96 58 84 108
Height
1505 1507 1509 1507 1505 1505 1508 1513 1516 1516 1515 1519 1522 1525 1526 1528 1530 1532 1535 1537 1539 1541 1544 1547 1550 1552 1554 1556 1557 1559 1560 1561 1562 1563 1564 1564 1564 1564 1564 1564 1563 1563 1563 1563
1506 1510 1506 1503 1503 1505 1508 1515 1517 1516 1515 1519 1522 1524 1524 1526 1528 1530 1532 1534 1537 1540 1543 1546 1549 1551 1553 1555 1557 1558 1560 1561 1562 1563 1564 1565 1565 1565 1565 1564 1564 1564 1564 1563
1508 1507 1504 1504 1506 1508 1510 1514 1516 1517 1516 1517 1522 1527 1524 1524 1526 1529 1530 1532 1534 1537 1541 1544 1547 1550 1552 1554 1556 1558 1560 1561 1562 1563 1564 1565 1565 1565 1565 1565 1565 1565 1564 1564
1506 1505 1505 1507 1508 1509 1515 1510 1512 1515 1520 1524 1522 1535 1525 1522 1524 1526 1528 1530 1532 1535 1538 1542 1545 1548 1551 1553 1555 1557 1559 1560 1561 1562 1563 1564 1565 1565 1566 1565 1565 1565 1565 1565
1508 1506 1507 1510 1509 1509 1512 1509 1512 1514 1518 1522 1520 1528 1525 1517 1522 1522 1524 1526 1529 1532 1536 1539 1543 1546 1549 1551 1554 1556 1558 1559 1560 1561 1563 1564 1565 1565 1566 1566 1566 1566 1565 1565
1506 1506 1507 1508 1508 1508 1509 1511 1513 1514 1519 1532 1520 1525 1527 1515 1514 1516 1519 1522 1526 1529 1533 1537 1540 1544 1547 1549 1552 1555 1556 1558 1559 1561 1562 1563 1564 1565 1565 1566 1566 1566 1566 1566
1511 1508 1507 1508 1510 1510 1511 1519 1531 1534 1536 1531 1513 1517 1517 1505 1504 1509 1513 1518 1522 1526 1530 1534 1538 1541 1544 1547 1550 1553 1554 1556 1558 1559 1561 1562 1563 1564 1565 1565 1566 1566 1566 1566
1515 1516 1507 1506 1509 1511 1511 1518 1531 1539 1535 1525 1511 1515 1507 1498 1501 1505 1509 1514 1519 1523 1527 1531 1535 1538 1542 1545 1548 1550 1552 1554 1556 1558 1559 1561 1562 1563 1564 1564 1565 1565 1566 1565
1509 1512 1503 1504 1505 1507 1510 1511 1508 1516 1516 1522 1516 1508 1502 1498 1502 1504 1508 1512 1517 1521 1525 1528 1532 1536 1539 1543 1546 1548 1550 1553 1554 1556 1558 1560 1561 1562 1563 1563 1564 1564 1565 1565
1499 1510 1503 1503 1504 1504 1505 1505 1509 1516 1528 1532 1521 1514 1512 1504 1503 1504 1507 1511 1515 1519 1523 1526 1530 1534 1537 1540 1544 1546 1549 1551 1553 1555 1556 1558 1559 1560 1561 1562 1563 1563 1564 1564
1496 1506 1506 1504 1506 1505 1504 1506 1507 1510 1513 1527 1532 1523 1499 1500 1500 1502 1506 1510 1513 1517 1520 1524 1528 1532 1535 1539 1542 1544 1547 1549 1551 1553 1554 1556 1558 1559 1560 1561 1561 1562 1563 1563
1496 1501 1507 1504 1498 1497 1499 1500 1506 1519 1518 1513 1522 1521 1495 1497 1499 1502 1505 1509 1512 1515 1519 1522 1526 1530 1533 1536 1539 1542 1544 1547 1549 1551 1553 1554 1556 1557 1558 1559 1560 1561 1562 1562
1498 1503 1513 1514 1509 1502 1500 1498 1500 1505 1510 1516 1524 1521 1496 1498 1500 1503 1506 1509 1511 1515 1518 1521 1524 1528 1531 1534 1537 1540 1542 1544 1547 1549 1551 1552 1554 1555 1556 1557 1558 1559 1560 1561
1499 1501 1509 1519 1512 1503 1502 1500 1500 1504 1514 1517 1516 1512 1502 1500 1501 1503 1506 1509 1511 1514 1517 1520 1523 1526 1529 1532 1535 1538 1540 1542 1544 1546 1548 1550 1551 1553 1554 1555 1556 1557 1558 1559
1497 1502 1501 1499 1498 1499 1501 1500 1499 1502 1505 1513 1511 1508 1504 1501 1502 1504 1506 1509 1511 1514 1517 1519 1522 1525 1528 1531 1533 1536 1538 1540 1542 1544 1545 1547 1549 1550 1551 1553 1554 1555 1556 1557
1495 1500 1500 1501 1496 1496 1499 1497 1497 1499 1500 1504 1506 1506 1501 1501 1502 1504 1506 1509 1511 1513 1516 1518 1521 1524 1526 1529 1531 1534 1536 1538 1539 1541 1543 1545 1546 1548 1549 1550 1551 1552 1554 1555
1494 1497 1504 1505 1497 1498 1504 1496 1495 1496 1495 1498 1504 1503 1499 1501 1502 1504 1506 1508 1510 1513 1515 1517 1520 1522 1524 1526 1529 1531 1533 1535 1536 1538 1540 1542 1543 1544 1546 1547 1548 1549 1551 1552
1491 1494 1498 1502 1504 1517 1501 1489 1490 1493 1493 1493 1495 1497 1499 1501 1502 1504 1505 1507 1509 1512 1514 1516 1518 1520 1522 1524 1526 1528 1530 1532 1534 1535 1537 1539 1540 1541 1543 1544 1545 1546 1548 1549
1488 1492 1499 1502 1508 1505 1495 1489 1490 1494 1496 1492 1493 1496 1498 1500 1502 1504 1506 1507 1509 1511 1513 1515 1517 1519 1520 1522 1524 1526 1528 1529 1531 1532 1534 1535 1537 1538 1539 1541 1542 1543 1544 1545
1487 1488 1496 1501 1509 1513 1499 1489 1489 1493 1499 1493 1493 1495 1497 1499 1504 1506 1506 1507 1509 1510 1512 1513 1515 1517 1518 1520 1522 1523 1525 1527 1528 1529 1531 1533 1534 1535 1536 1538 1539 1540 1541 1542
1489 1491 1496 1500 1503 1499 1491 1490 1492 1504 1503 1494 1494 1496 1498 1500 1502 1505 1506 1507 1508 1510 1511 1512 1513 1515 1516 1518 1519 1521 1523 1524 1525 1527 1529 1530 1531 1533 1534 1535 1536 1537 1538 1540
1486 1491 1493 1494 1502 1503 1490 1490 1494 1496 1493 1494 1495 1497 1498 1501 1502 1504 1505 1507 1508 1509 1510 1511 1512 1513 1515 1516 1518 1519 1520 1522 1524 1525 1526 1527 1529 1530 1531 1532 1533 1535 1536 1537
1482 1484 1486 1489 1493 1488 1488 1490 1491 1492 1493 1494 1496 1497 1499 1500 1502 1504 1505 1506 1507 1508 1510 1511 1511 1513 1514 1515 1516 1517 1519 1520 1522 1523 1524 1525 1526 1527 1528 1529 1530 1531 1533 1533
1478 1478 1481 1484 1484 1486 1487 1489 1490 1492 1493 1495 1496 1497 1498 1500 1501 1503 1504 1505 1506 1508 1509 1510 1511 1512 1513 1514 1515 1516 1517 1518 1520 1521 1522 1523 1524 1525 1526 1527 1528 1529 1529 1530
1479 1480 1481 1483 1483 1485 1487 1488 1489 1491 1493 1494 1495 1497 1498 1499 1500 1501 1503 1504 1505 1506 1508 1509 1510 1511 1511 1512 1513 1514 1516 1517 1518 1519 1520 1521 1522 1522 1523 1524 1525 1526 1527 1528
1477 1479 1482 1484 1484 1485 1486 1487 1488 1490 1491 1493 1494 1496 1497 1498 1499 1500 1501 1503 1504 1505 1507 1508 1509 1509 1510 1511 1512 1513 1514 1515 1516 1516 1517 1518 1519 1520 1521 1522 1523 1523 1525 1525